| time (UTC) | temp C | wind direction | speed KPH | gust KPH | rain 1hr cm | rain 24hr cm | rain mn cm | humidity % | barometer mb |
| 20260906004137 | 27 | 28 | 12.9 | 24.1 | 0.00 | 0.00 | 0.00 | 6 | 989.2 |
| 20260906003637 | 27 | 27 | 14.5 | 19.3 | 0.00 | 0.00 | 0.00 | 6 | 989.2 |
| 20260906003137 | 27 | 45 | 16.1 | 17.7 | 0.00 | 0.00 | 0.00 | 6 | 989.1 |
| 20260906002637 | 27 | 29 | 16.1 | 27.4 | 0.00 | 0.00 | 0.00 | 6 | 989.0 |
| 20260906002137 | 27 | 29 | 14.5 | 19.3 | 0.00 | 0.00 | 0.00 | 6 | 989.0 |
| 20260906001637 | 28 | 37 | 16.1 | 22.5 | 0.00 | 0.00 | 0.00 | 6 | 989.0 |
| 20260906001137 | 28 | 39 | 12.9 | 19.3 | 0.00 | 0.00 | 0.00 | 6 | 989.0 |
| 20260906000637 | 28 | 39 | 22.5 | 25.7 | 0.00 | 0.00 | 0.00 | 6 | 989.0 |
| 20260906000137 | 28 | 30 | 16.1 | 20.9 | 0.00 | 0.00 | 0.00 | 6 | 988.9 |
| 20260905235637 | 29 | 44 | 20.9 | 27.4 | 0.00 | 0.00 | 0.00 | 6 | 988.9 |
| 20260905235137 | 29 | 25 | 19.3 | 25.7 | 0.00 | 0.00 | 0.00 | 6 | 988.9 |
| 20260905234637 | 30 | 36 | 17.7 | 32.2 | 0.00 | 0.00 | 0.00 | 5 | 988.9 |
| 20260905234137 | 30 | 29 | 19.3 | 29.0 | 0.00 | 0.00 | 0.00 | 5 | 988.7 |
| 20260905233637 | 31 | 34 | 11.3 | 22.5 | 0.00 | 0.00 | 0.00 | 5 | 988.7 |
| 20260905233137 | 32 | 20 | 6.4 | 12.9 | 0.00 | 0.00 | 0.00 | 5 | 988.6 |
| 20260905232637 | 32 | 335 | 4.8 | 8.0 | 0.00 | 0.00 | 0.00 | 5 | 988.5 |
| 20260905232137 | 32 | 347 | 8.0 | 12.9 | 0.00 | 0.00 | 0.00 | 5 | 988.5 |
| 20260905231637 | 33 | 11 | 6.4 | 12.9 | 0.00 | 0.00 | 0.00 | 5 | 988.4 |
| 20260905231137 | 33 | 35 | 6.4 | 12.9 | 0.00 | 0.00 | 0.00 | 5 | 988.4 |
| 20260905230637 | 34 | 18 | 4.8 | 8.0 | 0.00 | 0.00 | 0.00 | 5 | 988.3 |
| 20260905230137 | 34 | 316 | 4.8 | 8.0 | 0.00 | 0.00 | 0.00 | 5 | 988.2 |
| 20260905225637 | 35 | 0 | 6.4 | 11.3 | 0.00 | 0.00 | 0.00 | 5 | 988.2 |
| 20260905225137 | 35 | 258 | 3.2 | 4.8 | 0.00 | 0.00 | 0.00 | 5 | 988.2 |
| 20260905224637 | 34 | 14 | 3.2 | 6.4 | 0.00 | 0.00 | 0.00 | 5 | 988.2 |
| 20260905224137 | 34 | 326 | 6.4 | 14.5 | 0.00 | 0.00 | 0.00 | 5 | 988.4 |
| 20260905223637 | 34 | 28 | 6.4 | 12.9 | 0.00 | 0.00 | 0.00 | 5 | 988.4 |
| 20260905223137 | 35 | 334 | 6.4 | 11.3 | 0.00 | 0.00 | 0.00 | 5 | 988.4 |
| 20260905222637 | 34 | 337 | 4.8 | 12.9 | 0.00 | 0.00 | 0.00 | 5 | 988.4 |
| 20260905222138 | 35 | 349 | 8.0 | 12.9 | 0.00 | 0.00 | 0.00 | 5 | 988.4 |
| 20260905221638 | 34 | 313 | 4.8 | 8.0 | 0.00 | 0.00 | 0.00 | 5 | 988.4 |
| 20260905221138 | 34 | 23 | 12.9 | 17.7 | 0.00 | 0.00 | 0.00 | 5 | 988.4 |
| 20260905220638 | 35 | 1 | 6.4 | 11.3 | 0.00 | 0.00 | 0.00 | 5 | 988.3 |
| 20260905220138 | 35 | 316 | 3.2 | 6.4 | 0.00 | 0.00 | 0.00 | 5 | 988.2 |
| 20260905215638 | 35 | 18 | 6.4 | 12.9 | 0.00 | 0.00 | 0.00 | 5 | 988.2 |
| 20260905215138 | 35 | 316 | 4.8 | 9.7 | 0.00 | 0.00 | 0.00 | 5 | 988.2 |
| 20260905214638 | 35 | 30 | 8.0 | 17.7 | 0.00 | 0.00 | 0.00 | 5 | 988.2 |
| 20260905214138 | 35 | 22 | 9.7 | 16.1 | 0.00 | 0.00 | 0.00 | 5 | 988.2 |
| 20260905213638 | 36 | 27 | 8.0 | 12.9 | 0.00 | 0.00 | 0.00 | 5 | 988.2 |
| 20260905213138 | 36 | 358 | 8.0 | 14.5 | 0.00 | 0.00 | 0.00 | 5 | 988.2 |
| 20260905212638 | 36 | 342 | 3.2 | 11.3 | 0.00 | 0.00 | 0.00 | 5 | 988.4 |
| 20260905212138 | 36 | 0 | 6.4 | 9.7 | 0.00 | 0.00 | 0.00 | 5 | 988.4 |
| 20260905211638 | 36 | 292 | 4.8 | 8.0 | 0.00 | 0.00 | 0.00 | 5 | 988.4 |
| 20260905211138 | 35 | 326 | 4.8 | 9.7 | 0.00 | 0.00 | 0.00 | 5 | 988.4 |
| 20260905210638 | 36 | 28 | 9.7 | 12.9 | 0.00 | 0.00 | 0.00 | 5 | 988.4 |
| 20260905210137 | 36 | 344 | 4.8 | 11.3 | 0.00 | 0.00 | 0.00 | 5 | 988.4 |
| 20260905205638 | 36 | 316 | 6.4 | 9.7 | 0.00 | 0.00 | 0.00 | 5 | 988.4 |
| 20260905205137 | 36 | 19 | 6.4 | 12.9 | 0.00 | 0.00 | 0.00 | 5 | 988.4 |
| 20260905204637 | 36 | 2 | 6.4 | 9.7 | 0.00 | 0.00 | 0.00 | 5 | 988.4 |
| 20260905204137 | 36 | 22 | 6.4 | 9.7 | 0.00 | 0.00 | 0.00 | 5 | 988.5 |
| 20260905203637 | 36 | 18 | 6.4 | 12.9 | 0.00 | 0.00 | 0.00 | 5 | 988.5 |
| 20260905203137 | 36 | 27 | 8.0 | 11.3 | 0.00 | 0.00 | 0.00 | 5 | 988.5 |
| 20260905202637 | 36 | 5 | 4.8 | 9.7 | 0.00 | 0.00 | 0.00 | 5 | 988.5 |
| 20260905202137 | 36 | 315 | 3.2 | 6.4 | 0.00 | 0.00 | 0.00 | 5 | 988.5 |
| 20260905201637 | 36 | 331 | 4.8 | 9.7 | 0.00 | 0.00 | 0.00 | 5 | 988.4 |
| 20260905201137 | 37 | 273 | 4.8 | 8.0 | 0.00 | 0.00 | 0.00 | 4 | 988.4 |
| 20260905200637 | 38 | 319 | 3.2 | 6.4 | 0.00 | 0.00 | 0.00 | 4 | 988.5 |
| 20260905200137 | 38 | 244 | 4.8 | 6.4 | 0.00 | 0.00 | 0.00 | 4 | 988.5 |
| 20260905195637 | 38 | 280 | 6.4 | 9.7 | 0.00 | 0.00 | 0.00 | 4 | 988.5 |
| 20260905195137 | 38 | 321 | 6.4 | 9.7 | 0.00 | 0.00 | 0.00 | 4 | 988.5 |
| 20260905194637 | 38 | 350 | 4.8 | 9.7 | 0.00 | 0.00 | 0.00 | 4 | 988.5 |
| 20260905194137 | 38 | 358 | 4.8 | 9.7 | 0.00 | 0.00 | 0.00 | 4 | 988.7 |
| 20260905193637 | 38 | 310 | 4.8 | 9.7 | 0.00 | 0.00 | 0.00 | 4 | 988.7 |
| 20260905193137 | 38 | 247 | 6.4 | 12.9 | 0.00 | 0.00 | 0.00 | 4 | 988.7 |
| 20260905192637 | 38 | 273 | 6.4 | 9.7 | 0.00 | 0.00 | 0.00 | 4 | 988.9 |
| 20260905192137 | 38 | 321 | 4.8 | 9.7 | 0.00 | 0.00 | 0.00 | 4 | 988.9 |
| 20260905191637 | 38 | 9 | 8.0 | 11.3 | 0.00 | 0.00 | 0.00 | 4 | 988.9 |
| 20260905191137 | 38 | 3 | 6.4 | 16.1 | 0.00 | 0.00 | 0.00 | 4 | 988.9 |
| 20260905190637 | 39 | 289 | 4.8 | 6.4 | 0.00 | 0.00 | 0.00 | 4 | 989.0 |
| 20260905190137 | 38 | 23 | 4.8 | 8.0 | 0.00 | 0.00 | 0.00 | 4 | 989.0 |
| 20260905185637 | 39 | 15 | 6.4 | 12.9 | 0.00 | 0.00 | 0.00 | 4 | 989.1 |
| 20260905185137 | 38 | 243 | 3.2 | 6.4 | 0.00 | 0.00 | 0.00 | 4 | 989.2 |
| 20260905184637 | 38 | 2 | 4.8 | 8.0 | 0.00 | 0.00 | 0.00 | 4 | 989.2 |
| 20260905184137 | 38 | 359 | 4.8 | 6.4 | 0.00 | 0.00 | 0.00 | 4 | 989.2 |
| 20260905183637 | 38 | 259 | 4.8 | 8.0 | 0.00 | 0.00 | 0.00 | 4 | 989.2 |
| 20260905183137 | 38 | 279 | 3.2 | 3.2 | 0.00 | 0.00 | 0.00 | 4 | 989.2 |
| 20260905182638 | 38 | 264 | 6.4 | 14.5 | 0.00 | 0.00 | 0.00 | 4 | 989.2 |
| 20260905182138 | 38 | 288 | 4.8 | 8.0 | 0.00 | 0.00 | 0.00 | 4 | 989.2 |
| 20260905181638 | 37 | 327 | 4.8 | 11.3 | 0.00 | 0.00 | 0.00 | 4 | 989.4 |
| 20260905181138 | 36 | 350 | 4.8 | 12.9 | 0.00 | 0.00 | 0.00 | 4 | 989.4 |
| 20260905180638 | 36 | 334 | 3.2 | 6.4 | 0.00 | 0.00 | 0.00 | 4 | 989.4 |
| 20260905180138 | 36 | 339 | 4.8 | 9.7 | 0.00 | 0.00 | 0.00 | 4 | 989.4 |
| 20260905175638 | 37 | 3 | 6.4 | 12.9 | 0.00 | 0.00 | 0.00 | 4 | 989.4 |
| 20260905175138 | 37 | 282 | 4.8 | 8.0 | 0.00 | 0.00 | 0.00 | 4 | 989.4 |
| 20260905174638 | 37 | 351 | 6.4 | 9.7 | 0.00 | 0.00 | 0.00 | 4 | 989.4 |
| 20260905174138 | 37 | 267 | 4.8 | 6.4 | 0.00 | 0.00 | 0.00 | 4 | 989.4 |
| 20260905173638 | 37 | 265 | 4.8 | 9.7 | 0.00 | 0.00 | 0.00 | 4 | 989.4 |
| 20260905173138 | 37 | 254 | 6.4 | 9.7 | 0.00 | 0.00 | 0.00 | 4 | 989.4 |
| 20260905172638 | 36 | 257 | 6.4 | 12.9 | 0.00 | 0.00 | 0.00 | 4 | 989.5 |
| 20260905172138 | 37 | 277 | 6.4 | 11.3 | 0.00 | 0.00 | 0.00 | 4 | 989.5 |
| 20260905171638 | 38 | 271 | 8.0 | 16.1 | 0.00 | 0.00 | 0.00 | 4 | 989.6 |
| 20260905171138 | 37 | 61 | 4.8 | 9.7 | 0.00 | 0.00 | 0.00 | 4 | 989.7 |
| 20260905170638 | 37 | 261 | 6.4 | 11.3 | 0.00 | 0.00 | 0.00 | 4 | 989.7 |
| 20260905170138 | 37 | 261 | 6.4 | 9.7 | 0.00 | 0.00 | 0.00 | 4 | 989.9 |
| 20260905165638 | 37 | 257 | 6.4 | 14.5 | 0.00 | 0.00 | 0.00 | 4 | 989.9 |
| 20260905165137 | 37 | 279 | 6.4 | 9.7 | 0.00 | 0.00 | 0.00 | 4 | 989.9 |
| 20260905164638 | 37 | 254 | 6.4 | 14.5 | 0.00 | 0.00 | 0.00 | 4 | 989.9 |
| 20260905164137 | 37 | 265 | 6.4 | 16.1 | 0.00 | 0.00 | 0.00 | 4 | 989.8 |
| 20260905163637 | 37 | 275 | 4.8 | 11.3 | 0.00 | 0.00 | 0.00 | 4 | 989.7 |
| 20260905163137 | 37 | 259 | 6.4 | 16.1 | 0.00 | 0.00 | 0.00 | 4 | 989.7 |
| 20260905162637 | 37 | 250 | 6.4 | 11.3 | 0.00 | 0.00 | 0.00 | 4 | 989.7 |
| 20260905162137 | 36 | 261 | 3.2 | 6.4 | 0.00 | 0.00 | 0.00 | 5 | 989.7 |
| 20260905161637 | 35 | 267 | 6.4 | 9.7 | 0.00 | 0.00 | 0.00 | 5 | 989.7 |
| 20260905161137 | 35 | 269 | 9.7 | 14.5 | 0.00 | 0.00 | 0.00 | 5 | 989.7 |
| 20260905160637 | 35 | 260 | 6.4 | 9.7 | 0.00 | 0.00 | 0.00 | 5 | 989.7 |
| 20260905160137 | 36 | 273 | 4.8 | 8.0 | 0.00 | 0.00 | 0.00 | 5 | 989.9 |
| 20260905155637 | 36 | 283 | 8.0 | 11.3 | 0.00 | 0.00 | 0.00 | 4 | 989.9 |
| 20260905155137 | 37 | 276 | 4.8 | 9.7 | 0.00 | 0.00 | 0.00 | 5 | 989.7 |
| 20260905154637 | 36 | 273 | 4.8 | 9.7 | 0.00 | 0.00 | 0.00 | 5 | 989.7 |
| 20260905154137 | -17 | 225 | 4.8 | 4.8 | 0.00 | 0.00 | 0.00 | 100 | |
| 20260905153637 | 36 | 270 | 8.0 | 11.3 | 0.00 | 0.00 | 0.00 | 5 | 989.7 |
| 20260905153137 | 36 | 272 | 4.8 | 6.4 | 0.00 | 0.00 | 0.00 | 5 | 989.6 |
| 20260905152637 | 36 | 275 | 4.8 | 6.4 | 0.00 | 0.00 | 0.00 | 5 | 989.5 |
| 20260905152137 | 36 | 280 | 4.8 | 6.4 | 0.00 | 0.00 | 0.00 | 5 | 989.5 |
| 20260905151637 | 36 | 271 | 3.2 | 8.0 | 0.00 | 0.00 | 0.00 | 5 | 989.4 |
| 20260905151137 | 35 | 277 | 4.8 | 6.4 | 0.00 | 0.00 | 0.00 | 5 | 989.4 |
| 20260905150637 | 35 | 274 | 6.4 | 11.3 | 0.00 | 0.00 | 0.00 | 5 | 989.4 |
| 20260905150137 | 35 | 274 | 6.4 | 9.7 | 0.00 | 0.00 | 0.00 | 5 | 989.4 |
| 20260905145637 | 36 | 271 | 4.8 | 8.0 | 0.00 | 0.00 | 0.00 | 5 | 989.4 |
| 20260905145137 | 36 | 279 | 3.2 | 6.4 | 0.00 | 0.00 | 0.00 | 5 | 989.4 |
| 20260905144637 | 35 | 280 | 4.8 | 8.0 | 0.00 | 0.00 | 0.00 | 5 | 989.4 |
| 20260905144308 | 35 | 293 | 3.2 | 6.4 | 0.00 | 0.00 | 0.00 | 5 | 989.7 |
| 20260905144137 | 35 | 293 | 3.2 | 6.4 | 0.00 | 0.00 | 0.00 | 5 | 989.7 |
| 20260905143637 | 33 | 293 | 3.2 | 4.8 | 0.00 | 0.00 | 0.00 | 5 | 989.7 |
| 20260905143308 | 33 | 270 | 6.4 | 8.0 | 0.00 | 0.00 | 0.00 | 5 | 989.7 |
| 20260905143137 | 33 | 270 | 6.4 | 8.0 | 0.00 | 0.00 | 0.00 | 5 | 989.7 |
| 20260905142638 | 32 | 268 | 4.8 | 8.0 | 0.00 | 0.00 | 0.00 | 5 | 989.7 |
| 20260905142309 | 32 | 270 | 6.4 | 9.7 | 0.00 | 0.00 | 0.00 | 5 | 989.7 |
| 20260905142138 | 32 | 270 | 6.4 | 9.7 | 0.00 | 0.00 | 0.00 | 5 | 989.7 |
| 20260905141638 | 32 | 267 | 6.4 | 8.0 | 0.00 | 0.00 | 0.00 | 5 | 989.7 |
| 20260905141310 | 32 | 270 | 4.8 | 8.0 | 0.00 | 0.00 | 0.00 | 5 | 989.7 |
| 20260905141138 | 32 | 270 | 4.8 | 8.0 | 0.00 | 0.00 | 0.00 | 5 | 989.7 |
| 20260905140638 | 33 | 272 | 6.4 | 8.0 | 0.00 | 0.00 | 0.00 | 5 | 989.7 |
| 20260905140309 | 32 | 299 | 1.6 | 3.2 | 0.00 | 0.00 | 0.00 | 5 | 989.7 |
| 20260905140138 | 32 | 299 | 1.6 | 3.2 | 0.00 | 0.00 | 0.00 | 5 | 989.7 |
| 20260905135638 | 31 | 341 | 3.2 | 8.0 | 0.00 | 0.00 | 0.00 | 5 | 989.7 |
| 20260905135138 | 30 | 270 | 6.4 | 8.0 | 0.00 | 0.00 | 0.00 | 6 | 989.5 |
| 20260905134638 | 30 | 270 | 4.8 | 6.4 | 0.00 | 0.00 | 0.00 | 6 | 989.5 |
| 20260905134309 | 29 | 270 | 6.4 | 8.0 | 0.00 | 0.00 | 0.00 | 6 | 989.7 |
| 20260905134138 | 29 | 270 | 6.4 | 8.0 | 0.00 | 0.00 | 0.00 | 6 | 989.7 |
| 20260905133638 | 29 | 270 | 6.4 | 9.7 | 0.00 | 0.00 | 0.00 | 6 | 989.7 |
| 20260905133138 | 29 | 267 | 8.0 | 9.7 | 0.00 | 0.00 | 0.00 | 6 | 989.7 |
| 20260905132638 | 29 | 267 | 6.4 | 8.0 | 0.00 | 0.00 | 0.00 | 6 | 989.7 |
| 20260905132138 | 29 | 266 | 6.4 | 9.7 | 0.00 | 0.00 | 0.00 | 6 | 989.7 |
| 20260905131638 | 28 | 270 | 6.4 | 8.0 | 0.00 | 0.00 | 0.00 | 6 | 989.7 |
| 20260905131138 | 29 | 269 | 6.4 | 8.0 | 0.00 | 0.00 | 0.00 | 6 | 989.7 |
| 20260905130638 | 29 | 268 | 4.8 | 6.4 | 0.00 | 0.00 | 0.00 | 6 | 989.7 |
| 20260905130138 | 28 | 270 | 4.8 | 8.0 | 0.00 | 0.00 | 0.00 | 6 | 989.7 |
| 20260905125638 | 28 | 272 | 4.8 | 6.4 | 0.00 | 0.00 | 0.00 | 6 | 989.7 |
| 20260905125137 | 28 | 273 | 4.8 | 6.4 | 0.00 | 0.00 | 0.00 | 6 | 989.4 |
| 20260905124637 | 28 | 270 | 3.2 | 6.4 | 0.00 | 0.00 | 0.00 | 6 | 989.4 |
| 20260905124137 | 28 | 272 | 3.2 | 4.8 | 0.00 | 0.00 | 0.00 | 6 | 989.4 |
| 20260905123637 | 27 | 271 | 1.6 | 3.2 | 0.00 | 0.00 | 0.00 | 6 | 989.4 |
| 20260905123137 | 27 | 270 | 3.2 | 4.8 | 0.00 | 0.00 | 0.00 | 6 | 989.4 |
| 20260905122637 | 27 | 270 | 3.2 | 3.2 | 0.00 | 0.00 | 0.00 | 6 | 989.4 |
| 20260905122137 | 27 | 270 | 3.2 | 3.2 | 0.00 | 0.00 | 0.00 | 7 | 989.4 |
| 20260905121637 | 26 | 0 | 0.0 | 0.0 | 0.00 | 0.00 | 0.00 | 7 | 989.2 |
| 20260905121137 | 26 | 0 | 0.0 | 0.0 | 0.00 | 0.00 | 0.00 | 7 | 989.2 |
| 20260905120637 | 25 | 0 | 0.0 | 0.0 | 0.00 | 0.00 | 0.00 | 7 | 989.2 |
| 20260905120137 | 25 | 0 | 0.0 | 0.0 | 0.00 | 0.00 | 0.00 | 7 | 989.2 |
| 20260905115637 | 25 | 270 | 0.0 | 1.6 | 0.00 | 0.00 | 0.00 | 7 | 989.2 |
| 20260905115137 | 25 | 270 | 0.0 | 3.2 | 0.00 | 0.00 | 0.00 | 7 | 989.2 |
| 20260905114637 | 25 | 0 | 0.0 | 0.0 | 0.00 | 0.00 | 0.00 | 7 | 989.2 |
| 20260905114137 | 24 | 270 | 0.0 | 3.2 | 0.00 | 0.00 | 0.00 | 7 | 989.2 |
| 20260905113637 | 24 | 270 | 1.6 | 3.2 | 0.00 | 0.00 | 0.00 | 7 | 989.2 |
| 20260905113137 | 24 | 261 | 0.0 | 3.2 | 0.00 | 0.00 | 0.00 | 7 | 989.2 |
| 20260905112637 | 24 | 0 | 0.0 | 0.0 | 0.00 | 0.00 | 0.00 | 7 | 989.1 |
| 20260905112137 | 24 | 0 | 0.0 | 0.0 | 0.00 | 0.00 | 0.00 | 7 | 989.1 |
| 20260905111637 | 24 | 0 | 0.0 | 0.0 | 0.00 | 0.00 | 0.00 | 7 | 989.1 |
| 20260905111137 | 24 | 36 | 0.0 | 1.6 | 0.00 | 0.00 | 0.00 | 7 | 989.1 |
| 20260905110637 | 25 | 0 | 0.0 | 0.0 | 0.00 | 0.00 | 0.00 | 7 | 989.1 |
| 20260905110137 | 25 | 0 | 0.0 | 0.0 | 0.00 | 0.00 | 0.00 | 7 | 989.1 |
| 20260905105637 | 25 | 0 | 0.0 | 0.0 | 0.00 | 0.00 | 0.00 | 7 | 989.1 |
| 20260905105137 | 25 | 0 | 0.0 | 0.0 | 0.00 | 0.00 | 0.00 | 7 | 989.1 |
| 20260905104637 | 25 | 0 | 0.0 | 0.0 | 0.00 | 0.00 | 0.00 | 7 | 989.1 |
| 20260905104137 | 25 | 292 | 0.0 | 1.6 | 0.00 | 0.00 | 0.00 | 7 | 989.2 |
| 20260905103637 | 25 | 270 | 3.2 | 3.2 | 0.00 | 0.00 | 0.00 | 7 | 989.2 |
| 20260905103137 | 25 | 0 | 0.0 | 0.0 | 0.00 | 0.00 | 0.00 | 7 | 989.3 |
| 20260905102637 | 25 | 0 | 0.0 | 0.0 | 0.00 | 0.00 | 0.00 | 7 | 989.4 |
| 20260905102137 | 25 | 0 | 0.0 | 0.0 | 0.00 | 0.00 | 0.00 | 7 | 989.4 |
| 20260905101637 | 25 | 0 | 0.0 | 0.0 | 0.00 | 0.00 | 0.00 | 7 | 989.2 |
| 20260905101138 | 25 | 0 | 0.0 | 0.0 | 0.00 | 0.00 | 0.00 | 7 | 989.2 |
| 20260905100638 | 25 | 0 | 0.0 | 0.0 | 0.00 | 0.00 | 0.00 | 7 | 989.2 |
| 20260905100138 | 25 | 0 | 0.0 | 0.0 | 0.00 | 0.00 | 0.00 | 7 | 989.2 |
| 20260905095638 | 25 | 0 | 0.0 | 0.0 | 0.00 | 0.00 | 0.00 | 7 | 989.2 |
| 20260905095138 | 25 | 0 | 0.0 | 0.0 | 0.00 | 0.00 | 0.00 | 7 | 989.4 |
| 20260905094638 | 25 | 0 | 0.0 | 0.0 | 0.00 | 0.00 | 0.00 | 7 | 989.4 |
| 20260905094138 | 25 | 0 | 0.0 | 0.0 | 0.00 | 0.00 | 0.00 | 7 | 989.3 |
| 20260905093638 | 25 | 0 | 0.0 | 0.0 | 0.00 | 0.00 | 0.00 | 7 | 989.2 |
| 20260905093138 | 25 | 0 | 0.0 | 0.0 | 0.00 | 0.00 | 0.00 | 7 | 989.2 |
| 20260905092638 | 25 | 0 | 0.0 | 0.0 | 0.00 | 0.00 | 0.00 | 7 | 989.2 |
| 20260905092138 | 25 | 0 | 0.0 | 0.0 | 0.00 | 0.00 | 0.00 | 7 | 989.2 |
| 20260905091638 | 25 | 0 | 0.0 | 0.0 | 0.00 | 0.00 | 0.00 | 7 | 989.1 |
| 20260905091138 | 25 | 0 | 0.0 | 0.0 | 0.00 | 0.00 | 0.00 | 7 | 989.1 |
| 20260905090638 | 25 | 0 | 0.0 | 0.0 | 0.00 | 0.00 | 0.00 | 7 | 989.1 |
| 20260905090138 | 25 | 0 | 0.0 | 0.0 | 0.00 | 0.00 | 0.00 | 7 | 989.1 |
| 20260905085638 | 25 | 0 | 0.0 | 0.0 | 0.00 | 0.00 | 0.00 | 7 | 989.1 |
| 20260905085138 | 25 | 0 | 0.0 | 0.0 | 0.00 | 0.00 | 0.00 | 7 | 989.1 |
| 20260905084638 | 25 | 0 | 0.0 | 0.0 | 0.00 | 0.00 | 0.00 | 7 | 989.1 |
| 20260905084137 | 25 | 0 | 0.0 | 0.0 | 0.00 | 0.00 | 0.00 | 7 | 989.1 |
| 20260905083637 | 25 | 0 | 0.0 | 0.0 | 0.00 | 0.00 | 0.00 | 7 | 989.1 |
| 20260905083137 | 25 | 0 | 0.0 | 0.0 | 0.00 | 0.00 | 0.00 | 7 | 989.0 |
| 20260905082637 | 25 | 0 | 0.0 | 0.0 | 0.00 | 0.00 | 0.00 | 7 | 988.9 |
| 20260905082137 | 25 | 0 | 0.0 | 0.0 | 0.00 | 0.00 | 0.00 | 7 | 988.9 |
| 20260905081637 | 25 | 0 | 0.0 | 0.0 | 0.00 | 0.00 | 0.00 | 7 | 988.9 |
| 20260905081137 | 25 | 0 | 0.0 | 0.0 | 0.00 | 0.00 | 0.00 | 7 | 988.9 |
| 20260905080637 | 25 | 0 | 0.0 | 0.0 | 0.00 | 0.00 | 0.00 | 7 | 988.8 |
| 20260905080137 | 25 | 0 | 0.0 | 0.0 | 0.00 | 0.00 | 0.00 | 7 | 988.7 |
| 20260905075637 | 25 | 271 | 1.6 | 3.2 | 0.00 | 0.00 | 0.00 | 7 | 988.7 |
| 20260905075137 | 25 | 265 | 0.0 | 3.2 | 0.00 | 0.00 | 0.00 | 7 | 988.9 |
| 20260905074637 | 25 | 270 | 3.2 | 4.8 | 0.00 | 0.00 | 0.00 | 7 | 988.9 |
| 20260905074137 | 25 | 270 | 3.2 | 4.8 | 0.00 | 0.00 | 0.00 | 7 | 988.9 |
| 20260905073637 | 25 | 275 | 1.6 | 4.8 | 0.00 | 0.00 | 0.00 | 7 | 988.9 |
| 20260905073137 | 26 | 0 | 0.0 | 0.0 | 0.00 | 0.00 | 0.00 | 7 | 988.9 |
| 20260905072637 | 26 | 0 | 0.0 | 0.0 | 0.00 | 0.00 | 0.00 | 7 | 988.9 |
| 20260905072137 | 26 | 0 | 0.0 | 0.0 | 0.00 | 0.00 | 0.00 | 7 | 988.9 |
| 20260905071637 | 26 | 0 | 0.0 | 0.0 | 0.00 | 0.00 | 0.00 | 7 | 989.1 |
| 20260905071137 | 26 | 0 | 0.0 | 0.0 | 0.00 | 0.00 | 0.00 | 7 | 989.2 |
| 20260905070637 | 26 | 0 | 0.0 | 0.0 | 0.00 | 0.00 | 0.00 | 7 | 989.2 |
| 20260905070137 | 26 | 0 | 0.0 | 0.0 | 0.00 | 0.00 | 0.00 | 7 | 989.2 |
| 20260905065637 | 26 | 0 | 0.0 | 0.0 | 0.00 | 0.00 | 0.00 | 7 | 989.2 |
| 20260905065137 | 26 | 0 | 0.0 | 0.0 | 0.00 | 0.00 | 0.00 | 7 | 989.4 |
| 20260905064637 | 26 | 0 | 0.0 | 0.0 | 0.00 | 0.00 | 0.00 | 7 | 989.4 |
| 20260905064137 | 26 | 0 | 0.0 | 0.0 | 0.00 | 0.00 | 0.00 | 7 | 989.4 |
| 20260905063637 | 26 | 0 | 0.0 | 0.0 | 0.00 | 0.00 | 0.00 | 7 | 989.4 |
| 20260905063137 | 26 | 0 | 0.0 | 0.0 | 0.00 | 0.00 | 0.00 | 7 | 989.4 |
| 20260905062637 | 26 | 0 | 0.0 | 0.0 | 0.00 | 0.00 | 0.00 | 7 | 989.4 |
| 20260905062137 | 26 | 0 | 0.0 | 0.0 | 0.00 | 0.00 | 0.00 | 7 | 989.4 |
| 20260905061637 | 26 | 0 | 0.0 | 0.0 | 0.00 | 0.00 | 0.00 | 7 | 989.4 |
| 20260905061138 | 26 | 0 | 0.0 | 0.0 | 0.00 | 0.00 | 0.00 | 7 | 989.4 |
| 20260905060638 | 26 | 0 | 0.0 | 0.0 | 0.00 | 0.00 | 0.00 | 7 | 989.4 |
| 20260905060138 | 26 | 0 | 0.0 | 0.0 | 0.00 | 0.00 | 0.00 | 7 | 989.6 |
| 20260905055638 | 26 | 0 | 0.0 | 0.0 | 0.00 | 0.00 | 0.00 | 7 | 989.6 |
| 20260905055138 | 26 | 0 | 0.0 | 0.0 | 0.00 | 0.00 | 0.00 | 7 | 989.6 |
| 20260905054638 | 26 | 0 | 0.0 | 0.0 | 0.00 | 0.00 | 0.00 | 7 | 989.6 |
| 20260905054138 | 26 | 0 | 0.0 | 0.0 | 0.00 | 0.00 | 0.00 | 7 | 989.6 |
| 20260905053638 | 26 | 0 | 0.0 | 0.0 | 0.00 | 0.00 | 0.00 | 7 | 989.6 |
| 20260905053138 | 26 | 0 | 0.0 | 0.0 | 0.00 | 0.00 | 0.00 | 7 | 989.6 |
| 20260905052638 | 27 | 0 | 0.0 | 0.0 | 0.00 | 0.00 | 0.00 | 7 | 989.4 |
| 20260905052138 | 27 | 0 | 0.0 | 0.0 | 0.00 | 0.00 | 0.00 | 7 | 989.4 |
| 20260905051638 | 27 | 0 | 0.0 | 0.0 | 0.00 | 0.00 | 0.00 | 7 | 989.4 |
| 20260905051138 | 27 | 0 | 0.0 | 0.0 | 0.00 | 0.00 | 0.00 | 7 | 989.4 |
| 20260905050638 | 27 | 0 | 0.0 | 0.0 | 0.00 | 0.00 | 0.00 | 7 | 989.5 |
| 20260905050138 | 27 | 0 | 0.0 | 0.0 | 0.00 | 0.00 | 0.00 | 7 | 989.6 |
| 20260905045638 | 27 | 0 | 0.0 | 0.0 | 0.00 | 0.00 | 0.00 | 7 | 989.6 |
| 20260905045138 | 27 | 0 | 0.0 | 0.0 | 0.00 | 0.00 | 0.00 | 7 | 989.5 |
| 20260905044638 | 27 | 0 | 0.0 | 0.0 | 0.00 | 0.00 | 0.00 | 6 | 989.5 |
| 20260905044138 | 27 | 0 | 0.0 | 0.0 | 0.00 | 0.00 | 0.00 | 6 | 989.6 |
| 20260905043637 | 27 | 0 | 0.0 | 0.0 | 0.00 | 0.00 | 0.00 | 6 | 989.7 |
| 20260905043137 | 27 | 0 | 0.0 | 0.0 | 0.00 | 0.00 | 0.00 | 6 | 989.7 |
| 20260905042637 | 27 | 0 | 0.0 | 0.0 | 0.00 | 0.00 | 0.00 | 6 | 989.7 |
| 20260905042137 | 27 | 0 | 0.0 | 0.0 | 0.00 | 0.00 | 0.00 | 6 | 989.7 |
| 20260905041637 | 27 | 0 | 0.0 | 0.0 | 0.00 | 0.00 | 0.00 | 6 | 989.7 |
| 20260905041137 | 27 | 0 | 0.0 | 0.0 | 0.00 | 0.00 | 0.00 | 6 | 989.7 |
| 20260905040637 | 27 | 0 | 0.0 | 0.0 | 0.00 | 0.00 | 0.00 | 6 | 989.7 |
| 20260905040137 | 27 | 0 | 0.0 | 0.0 | 0.00 | 0.00 | 0.00 | 6 | 989.7 |
| 20260905035637 | 27 | 0 | 0.0 | 0.0 | 0.00 | 0.00 | 0.00 | 6 | 989.7 |
| 20260905035137 | 27 | 0 | 0.0 | 0.0 | 0.00 | 0.00 | 0.00 | 6 | 989.7 |
| 20260905034637 | 27 | 0 | 0.0 | 0.0 | 0.00 | 0.00 | 0.00 | 6 | 989.7 |
| 20260905034137 | 27 | 0 | 0.0 | 0.0 | 0.00 | 0.00 | 0.00 | 6 | 989.7 |
| 20260905033637 | 27 | 0 | 0.0 | 0.0 | 0.00 | 0.00 | 0.00 | 6 | 989.7 |
| 20260905033137 | 27 | 0 | 0.0 | 0.0 | 0.00 | 0.00 | 0.00 | 6 | 989.7 |
| 20260905032637 | 27 | 0 | 0.0 | 0.0 | 0.00 | 0.00 | 0.00 | 6 | 989.7 |
| 20260905032137 | 27 | 0 | 0.0 | 0.0 | 0.00 | 0.00 | 0.00 | 6 | 989.7 |
| 20260905031637 | 28 | 0 | 0.0 | 0.0 | 0.00 | 0.00 | 0.00 | 6 | 989.7 |
| 20260905031137 | 28 | 0 | 0.0 | 0.0 | 0.00 | 0.00 | 0.00 | 6 | 989.7 |
| 20260905030637 | 28 | 0 | 0.0 | 0.0 | 0.00 | 0.00 | 0.00 | 6 | 989.7 |
| 20260905030137 | 28 | 0 | 0.0 | 0.0 | 0.00 | 0.00 | 0.00 | 6 | 989.9 |
| 20260905025637 | 28 | 0 | 0.0 | 0.0 | 0.00 | 0.00 | 0.00 | 6 | 989.9 |
| 20260905025137 | 28 | 0 | 0.0 | 0.0 | 0.00 | 0.00 | 0.00 | 6 | 989.7 |
| 20260905024637 | 28 | 0 | 0.0 | 0.0 | 0.00 | 0.00 | 0.00 | 6 | 989.7 |
| 20260905024137 | 28 | 0 | 0.0 | 0.0 | 0.00 | 0.00 | 0.00 | 6 | 989.5 |
| 20260905023637 | -17 | 0 | 0.0 | 0.0 | 0.00 | 0.00 | 0.00 | 100 | |
| 20260905023137 | -17 | 0 | 0.0 | 0.0 | 0.00 | 0.00 | 0.00 | 100 | |
| 20260905022637 | -17 | 0 | 0.0 | 0.0 | 0.00 | 0.00 | 0.00 | 100 | |
| 20260905022137 | -17 | 0 | 0.0 | 0.0 | 0.00 | 0.00 | 0.00 | 100 | |
| 20260905021637 | -17 | 0 | 0.0 | 0.0 | 0.00 | 0.00 | 0.00 | 100 | |
| 20260905021137 | -17 | 0 | 0.0 | 0.0 | 0.00 | 0.00 | 0.00 | 100 | |
| 20260905020638 | -17 | 0 | 0.0 | 0.0 | 0.00 | 0.00 | 0.00 | 100 | |
| 20260905020138 | -17 | 0 | 0.0 | 0.0 | 0.00 | 0.00 | 0.00 | 100 | |
| 20260905015638 | -17 | 0 | 0.0 | 0.0 | 0.00 | 0.00 | 0.00 | 100 | |
| 20260905015138 | -17 | 0 | 0.0 | 0.0 | 0.00 | 0.00 | 0.00 | 100 | |
| 20260905014638 | -17 | 0 | 0.0 | 0.0 | 0.00 | 0.00 | 0.00 | 100 | |
| 20260905014138 | -17 | 0 | 0.0 | 0.0 | 0.00 | 0.00 | 0.00 | 100 | |
| 20260905013638 | -17 | 0 | 0.0 | 0.0 | 0.00 | 0.00 | 0.00 | 100 | |
| 20260905013138 | -17 | 0 | 0.0 | 0.0 | 0.00 | 0.00 | 0.00 | 100 | |
| 20260905012638 | -17 | 0 | 0.0 | 0.0 | 0.00 | 0.00 | 0.00 | 100 | |
| 20260905012138 | -17 | 0 | 0.0 | 0.0 | 0.00 | 0.00 | 0.00 | 100 | |
| 20260905011638 | -17 | 0 | 0.0 | 0.0 | 0.00 | 0.00 | 0.00 | 100 | |
| 20260905011138 | -17 | 0 | 0.0 | 0.0 | 0.00 | 0.00 | 0.00 | 100 | |
| 20260905010638 | -17 | 0 | 0.0 | 0.0 | 0.00 | 0.00 | 0.00 | 100 | |
| 20260905010138 | -17 | 0 | 0.0 | 0.0 | 0.00 | 0.00 | 0.00 | 100 | |
| 20260905005638 | -17 | 0 | 0.0 | 0.0 | 0.00 | 0.00 | 0.00 | 100 | |
| 20260905005138 | -17 | 0 | 0.0 | 0.0 | 0.00 | 0.00 | 0.00 | 100 | |
| 20260905004638 | -17 | 0 | 0.0 | 0.0 | 0.00 | 0.00 | 0.00 | 100 |